SCP
-0 0 0 -0 -0 -0 -0 -0 -0 -0 -0 -0 -0 -0 -0 -0 -0 -0 -0 -0 -0 -0 -0 -0 -0 -0 -0 -0 -0 -0 -0 -0 -0 -0 -0 -0 -0 -0 -0 -0 -0 0 -0
-0 -0 -0 -0 -0 -0 -0 -0 -0 -0 -0 -0 -0 -0 -0 -0 -0 -0 -0 -0 -0 -0 -0 -0 -0 -0 -0 -0 -0 -0 -0 -0 -0 -0 -0 -0 -0 -0 -0 -0 -0 0 -0
-0 -0 -0 -0 -0 -0 -0 -0 -0 -0 -0 -0 -0 -0 -0 -0 -0 -0 -0 -0 -0 -0 -0 -0 -0 -0 -0 -0 -0 -0 -0 -0 -0 -0 -0 -0 0 -0 -0 -0 -0 -0 -0
-0 -0 -0 -0 -0 -0 -0 -0 -0 -0 -0 -0 -0 -0 -0 -0 -0 -0 -0 -0 -0 -0 -0 -0 -0 -0 -0 -0 -0 -0 -0 -0 -0 -0 0 0 -0 -0 -0 -0 -0 -0 -0
-0 -0 -0 -0 -0 -0 -0 -0 -0 -0 -0 -0 -0 -0 -0 -0 -0 -0 -0 -0 -0 -0 -0 -0 -0 -0 -0 -0 -0 -0 -0 -0 -0 -0 0 0 0 -0 -0 -0 -0 -0 -0
-0 -0 -0 -0 -0 -0 -0 -0 -0 -0 -0 -0 -0 -0 -0 -0 -0 -0 -0 -0 -0 -0 -0 -0 -0 -0 -0 -0 -0 -0 -0 -0 -0 0 0 0 0 -0 0 0 0 0 0
-0 -0 -0 -0 -0 -0 -0 -0 -0 -0 -0 -0 -0 -0 -0 -0 -0 -0 -0 -0 -0 -0 -0 -0 -0 -0 -0 -0 -0 -0 -0 -0 0 0 0 0 0 0 0 0 0 0 0
-0 -0 -0 -0 -0 -0 -0 -0 -0 -0 -0 -0 -0 -0 -0 -0 -0 -0 -0 -0 -0 -0 -0 -0 -0 -0 -0 -0 -0 -0 -0 -0 0 0 0 0 0 0 0 0 0 0 0
-0 -0 -0 -0 -0 -0 -0 -0 -0 -0 -0 -0 -0 -0 -0 -0 -0 -0 -0 0 -0 -0 -0 -0 -0 -0 -0 -0 -0 -0 -0 -0 0 0 0 0 0 0 0 0 0 0 0
-0 0 0 0 0 0 0 0 -0 -0 -0 -0 -0 -0 -0 -0 -0 0 -0 0 -0 -0 -0 -0 -0 0 0 0 0 0 0 0 0 0 0 0 0 0 0 0 0 0 0
0 0 0 0 0 0 0 0 0 -0 -0 -0 -0 -0 -0 0 0 0 0 -0 0 0 -0 0 0 0 0 0 0 0 0 0 0 0 0 0 0 0 0 0 0 0 0
0 0 0 0 0 0 0 0 0 0 0 0 0 0 0 0 0 0 0 0 0 0 0 0 0 0 0 0 0 0 0 0 0 0 0 0 0 0 0 0 0 0 0
0 0 0 0 0 0 0 0 0 0 0 0 0 0 0 0 0 0 0 0 0 0 0 0 0 0 0 0 0 0 0 0 0 0 0 0 0 0 0 0 0 0 0
0 0 0 0 0 0 0 0 0 0 0 0 0 0 0 0 0 0 0 0 0 0 0 0 0 0 0 0 0 0 0 0 0 0 0 0 0 0 0 0 0 0 0
0 0 0 0 0 0 0 0 0 0 0 0 0 0 0 0 0 0 0 0 0 0 0 0 0 0 0 0 0 0 0 0 0 0 0 0 0 0 0 0 0 0 0
0 0 0 0 0 0 0 0 0 0 0 0 0 0 0 0 0 0 0 0 0 0 0 0 0 0 0 0 0 0 0 0 0 0 0 0 0 0 0 0 0 0 0
0 0 0 0 0 0 0 0 0 0 0 0 0 0 0 0 0 0 0 0 0 0 0 0 0 0 0 0 0 0 0 0 0 0 0 0 0 0 0 0 0 0 0
0 0 0 0 0 0 0 0 0 0 0 0 0 0 0 0 0 0 0 0 0 0 0 0 0 0 0 0 0 0 0 0 0 0 0 0 0 0 0 0 0 0 0
0 0 0 0 0 0 0 0 0 0 0 0 0 0 0 0 0 0 0 0 0 0 0 0 0 0 0 0 0 0 0 0 0 0 0 0 0 0 0 0 0 0 0
0 0 0 0 0 0 0 0 0 0 0 0 0 0 0 0 0 0 0 0 0 0 0 0 0 0 0 0 0 0 0 0 0 0 0 0 0 0 0 0 0 0 0
0 0 0 0 0 0 0 0 0 0 0 0 0 0 0 0 0 0 0 0 0 0 0 0 0 0 0 0 0 0 0 0 0 0 0 0 0 0 0 0 0 0 0
0 0 0 0 0 0 0 0 0 0 0 0 0 0 0 0 0 0 0 0 0 0 0 0 0 0 0 0 0 0 0 0 0 0 0 0 0 0 0 0 0 0 0
0 0 0 0 0 0 0 0 0 0 0 0 0 0 0 0 0 0 0 0 0 0 0 0 0 0 0 0 0 0 0 0 0 0 0 0 0 0 0 0 0 0 0
0 0 0 0 0 0 0 0 0 0 0 0 0 0 0 0 0 0 0 0 0 0 0 0 0 0 0 0 0 0 0 0 0 0 0 0 0 0 0 0 0 0 0
0 0 0 0 0 0 0 0 0 0 0 0 0 0 0 0 0 0 0 0 0 0 0 0 0 0 0 0 0 0 0 0 0 0 0 0 0 0 0 0 0 0 0
0 0 0 0 0 0 0 0 0 0 0 0 0 0 0 0 0 0 0 0 0 0 0 0 0 0 0 0 0 0 0 0 0 0 0 0 0 0 0 0 0 0 0
Wind_Speed_500mb
22 24 27 27 26 25 24 21 23 24 26 22 25 29 29 30 31 32 31 28 24 26 24 23 24 23 24 25 24 25 24 24 24 24 21 18 18 21 23 27 26 26 26
15 28 27 28 26 24 23 21 20 20 21 19 21 25 25 26 26 30 29 26 25 23 24 24 24 23 25 25 26 25 19 23 21 24 24 18 14 13 13 15 18 22 21
22 31 27 26 26 25 22 18 17 18 17 16 17 19 21 22 25 30 31 29 23 21 21 22 21 22 23 24 25 20 19 25 25 21 19 19 20 16 13 11 9 8 11
25 31 28 26 25 23 20 17 16 15 15 14 12 14 17 20 25 29 31 33 26 22 21 20 19 19 19 20 20 17 15 16 19 14 16 21 23 19 17 16 14 9 6
22 28 29 26 25 23 20 15 14 12 12 12 9 11 14 17 22 26 28 30 30 25 22 20 19 18 16 16 14 13 9 9 10 12 15 19 22 24 22 20 19 16 12
22 26 28 25 24 18 17 16 15 12 11 11 10 12 10 15 20 25 27 28 27 26 23 21 20 19 16 13 10 7 4 5 10 12 16 18 20 22 22 22 21 20 18
24 25 25 26 28 24 17 15 14 12 9 8 10 13 10 15 18 21 24 25 24 22 23 23 22 20 18 13 9 5 4 8 10 12 15 19 21 23 23 23 23 23 21
26 21 23 21 27 27 24 19 20 17 10 6 9 13 11 10 14 18 22 25 22 19 20 22 22 22 21 18 14 12 11 13 16 16 19 21 23 24 24 24 24 22 20
35 33 31 28 26 25 23 20 19 19 10 9 12 14 8 6 9 14 20 23 22 18 19 19 20 21 21 18 17 16 16 17 17 18 20 22 23 24 25 25 24 23 21
36 37 34 36 34 30 28 24 25 23 18 13 12 13 9 8 11 10 13 25 26 24 22 22 20 20 19 19 19 18 20 21 22 23 24 24 24 24 24 24 24 24 24
41 38 34 40 39 36 32 32 29 26 23 19 17 14 11 9 8 12 14 17 18 26 24 24 23 21 23 21 20 19 20 20 21 20 20 21 21 22 23 24 24 23 23
40 39 40 39 41 38 38 33 33 29 25 26 22 20 16 14 14 12 11 11 5 12 21 22 26 27 26 27 25 23 21 19 17 16 16 16 16 18 19 19 20 22 25
40 42 42 42 40 36 41 36 38 38 38 34 28 25 23 19 17 16 11 4 5 4 8 15 17 21 22 20 22 23 23 21 19 15 14 14 14 15 15 16 16 17 17
36 39 41 43 43 41 39 46 42 41 39 39 36 32 29 27 20 28 14 8 4 3 3 7 6 10 12 11 12 11 13 15 17 16 14 14 14 14 14 14 15 14 14
35 36 37 37 38 40 43 48 48 43 41 37 36 34 30 28 33 25 19 15 10 7 1 0 0 3 4 3 3 7 11 12 11 11 14 14 14 14 15 17 18 19 18
32 32 33 34 36 40 46 45 47 44 43 41 35 33 37 39 35 31 24 16 12 11 4 5 12 6 3 2 4 6 10 9 10 10 13 16 18 19 20 21 22 22 22
34 33 33 34 37 41 45 45 46 43 41 38 39 41 38 39 37 30 24 20 17 16 15 15 12 8 6 2 4 6 6 7 8 10 13 17 19 21 24 27 28 29 29
38 37 36 37 40 43 46 50 49 46 42 36 41 45 43 40 33 29 26 23 20 20 16 10 8 4 2 3 4 2 3 3 4 8 13 15 18 21 25 29 31 30 30
41 40 40 40 44 46 54 54 52 50 44 41 38 35 38 38 33 26 21 18 15 12 12 7 1 6 7 8 6 9 10 7 8 12 13 16 19 22 25 28 31 32 32
39 37 36 38 45 51 53 53 53 50 47 40 33 30 32 31 26 23 22 21 17 12 11 8 8 12 10 14 14 13 11 9 8 7 12 15 22 27 33 35 37 38 40
41 38 36 40 46 53 55 61 58 54 49 45 37 32 32 29 27 25 26 23 21 19 15 13 11 11 13 13 12 14 13 6 4 7 10 19 28 37 41 42 43 44 44
41 39 39 43 52 57 60 61 59 58 54 49 41 38 34 30 32 30 28 26 23 18 14 11 8 6 14 12 7 10 11 7 9 19 14 22 35 39 41 42 43 44 46
47 45 44 49 59 65 62 59 62 59 55 49 47 43 42 40 37 32 28 24 20 14 9 7 7 7 9 11 11 5 3 3 17 9 12 29 37 39 41 43 46 48 49
51 48 49 56 60 62 69 70 61 57 59 54 55 53 50 44 38 31 26 21 14 10 8 8 11 14 17 16 15 16 14 15 12 13 23 33 38 41 42 43 45 48 48
56 57 57 60 62 63 62 63 65 62 63 64 62 61 54 46 37 30 23 17 13 12 11 14 17 18 18 17 15 13 13 14 19 23 28 44 38 39 40 42 44 46 50
63 63 61 64 64 65 66 65 64 63 69 71 70 62 53 45 38 30 23 17 15 12 13 13 17 17 17 17 17 16 16 18 21 25 34 43 47 47 41 37 43 48 54
Wind_Direction_500mb
167 163 151 143 137 130 122 108 100 94 97 89 81 67 61 59 55 52 56 60 67 73 78 80 81 84 87 87 83 81 76 71 65 60 67 75 81 79 76 75 75 71 63
178 161 160 155 147 138 131 123 107 99 98 86 75 62 60 58 52 47 45 52 62 69 73 75 79 79 82 86 90 84 64 61 61 52 60 58 57 65 74 80 81 78 71
174 165 161 162 156 149 144 131 121 115 103 98 84 65 61 52 45 44 45 50 61 70 72 72 73 76 82 92 103 95 79 69 69 49 57 55 49 49 49 45 45 70 84
170 170 169 166 162 156 150 141 135 126 114 114 90 65 61 57 49 46 46 46 55 67 70 68 68 72 79 90 107 109 94 85 70 48 29 35 28 26 31 33 32 30 17
162 174 172 165 161 164 161 158 148 133 124 126 104 82 77 63 54 50 46 47 53 63 63 63 66 72 80 93 109 115 105 80 48 27 6 2 12 25 29 29 25 22 15
164 174 175 170 164 157 164 163 155 145 141 135 118 111 87 61 58 54 49 49 51 56 61 60 61 66 77 92 109 121 113 36 3 8 10 13 21 28 29 31 29 26 25
159 159 175 177 171 171 171 170 159 141 125 126 131 136 101 80 65 55 50 46 45 49 57 59 60 64 71 81 97 93 39 27 3 11 17 23 28 28 26 25 22 18 17
161 169 186 191 190 179 179 181 173 158 160 146 142 142 121 86 65 52 45 41 39 41 45 52 55 56 59 62 62 58 44 35 31 31 28 28 26 24 23 22 19 17 12
164 182 192 196 202 191 185 190 186 171 165 180 167 163 146 102 65 54 40 38 41 57 57 57 58 58 61 61 55 47 40 33 29 27 26 24 21 18 18 17 15 12 8
184 185 192 195 199 203 199 198 197 193 184 204 195 187 180 149 111 91 58 23 36 57 62 58 58 61 61 61 60 50 43 34 28 24 22 20 18 17 17 15 12 8 4
204 202 201 195 199 206 203 203 207 208 203 212 212 202 201 165 147 127 105 55 31 34 48 57 53 61 63 60 58 55 52 49 42 34 27 24 19 15 13 12 9 5 2
203 204 202 202 202 208 202 198 204 210 212 219 218 212 207 186 173 173 140 83 70 37 34 50 65 72 70 66 65 65 62 60 55 44 33 24 15 8 4 1 1 360 359
206 208 209 210 216 218 203 196 205 210 214 216 202 209 205 204 191 187 180 173 177 115 47 39 58 71 69 76 76 71 64 60 55 49 41 30 20 8 1 357 353 350 348
216 212 211 214 217 217 206 199 205 212 214 219 213 206 198 206 198 187 207 201 211 190 103 50 66 80 68 78 68 72 61 53 53 48 41 34 28 20 8 353 345 340 333
224 219 218 220 221 218 212 208 204 209 214 212 203 202 206 207 200 205 215 211 224 226 220 184 20 258 55 139 32 36 32 33 28 26 27 22 19 7 355 351 348 344 336
208 208 211 213 214 214 211 202 197 203 209 210 201 210 201 197 204 217 221 215 204 202 226 268 298 293 253 290 20 7 360 1 2 2 3 0 359 357 356 354 350 343 333
216 220 220 219 216 212 208 198 194 198 203 203 201 203 202 203 210 211 209 207 202 216 206 242 252 228 252 252 337 337 354 13 4 358 1 3 4 4 4 1 357 352 345
227 232 234 229 220 211 202 191 198 198 201 198 201 200 203 209 203 202 202 198 208 207 222 220 251 289 147 225 279 326 354 354 4 360 11 18 21 18 12 11 7 5 359
232 233 235 229 219 206 195 192 197 197 199 195 197 201 201 198 198 196 194 193 188 182 187 192 200 97 110 119 119 106 100 91 58 47 44 35 29 19 12 7 1 356 353
236 234 231 225 208 198 195 194 197 197 197 197 196 200 194 186 182 182 182 179 180 184 184 172 127 100 103 93 106 116 103 87 74 48 30 21 11 360 354 350 346 344 342
231 230 230 220 202 195 192 192 193 195 192 191 192 195 178 176 176 181 182 175 161 154 149 134 113 94 97 104 116 114 120 117 17 359 350 348 349 351 349 346 345 341 338
228 222 217 202 192 191 195 194 194 192 187 183 188 187 180 182 173 168 165 159 151 153 142 137 133 117 102 110 159 187 183 227 310 308 313 339 344 347 346 349 347 344 343
218 215 206 194 191 190 189 190 190 185 182 179 186 183 176 171 166 164 159 155 145 131 132 115 83 65 64 65 66 96 234 228 316 262 304 336 345 351 353 352 350 348 347
215 206 197 197 195 196 195 194 194 196 190 187 185 179 170 166 162 160 159 147 142 140 127 104 70 52 45 34 23 23 19 3 351 321 320 338 352 353 356 353 350 349 348
210 204 197 198 195 195 196 198 196 193 193 187 178 173 166 161 163 160 154 157 150 127 99 68 55 44 37 34 27 25 8 358 348 338 329 335 339 349 353 350 348 345 343
202 197 195 194 196 196 196 195 195 199 192 182 175 172 167 168 165 161 164 152 130 105 74 47 30 20 16 20 26 23 15 12 356 347 336 335 337 344 348 350 344 343 340
Wind_Speed_850mb
22 24 27 27 26 25 24 21 23 24 26 22 25 29 29 30 31 32 31 28 24 26 24 23 24 23 24 25 24 25 24 24 24 24 21 18 18 21 23 27 26 26 26
15 28 27 28 26 24 23 21 20 20 21 19 21 25 25 26 26 30 29 26 25 23 24 24 24 23 25 25 26 25 19 23 21 24 24 18 14 13 13 15 18 22 21
22 31 27 26 26 25 22 18 17 18 17 16 17 19 21 22 25 30 31 29 23 21 21 22 21 22 23 24 25 20 19 25 25 21 19 19 20 16 13 11 9 8 11
25 31 28 26 25 23 20 17 16 15 15 14 12 14 17 20 25 29 31 33 26 22 21 20 19 19 19 20 20 17 15 16 19 14 16 21 23 19 17 16 14 9 6
22 28 29 26 25 23 20 15 14 12 12 12 9 11 14 17 22 26 28 30 30 25 22 20 19 18 16 16 14 13 9 9 10 12 15 19 22 24 22 20 19 16 12
22 26 28 25 24 18 17 16 15 12 11 11 10 12 10 15 20 25 27 28 27 26 23 21 20 19 16 13 10 7 4 5 10 12 16 18 20 22 22 22 21 20 18
24 25 25 26 28 24 17 15 14 12 9 8 10 13 10 15 18 21 24 25 24 22 23 23 22 20 18 13 9 5 4 8 10 12 15 19 21 23 23 23 23 23 21
26 21 23 21 27 27 24 19 20 17 10 6 9 13 11 10 14 18 22 25 22 19 20 22 22 22 21 18 14 12 11 13 16 16 19 21 23 24 24 24 24 22 20
35 33 31 28 26 25 23 20 19 19 10 9 12 14 8 6 9 14 20 23 22 18 19 19 20 21 21 18 17 16 16 17 17 18 20 22 23 24 25 25 24 23 21
36 37 34 36 34 30 28 24 25 23 18 13 12 13 9 8 11 10 13 25 26 24 22 22 20 20 19 19 19 18 20 21 22 23 24 24 24 24 24 24 24 24 24
41 38 34 40 39 36 32 32 29 26 23 19 17 14 11 9 8 12 14 17 18 26 24 24 23 21 23 21 20 19 20 20 21 20 20 21 21 22 23 24 24 23 23
40 39 40 39 41 38 38 33 33 29 25 26 22 20 16 14 14 12 11 11 5 12 21 22 26 27 26 27 25 23 21 19 17 16 16 16 16 18 19 19 20 22 25
40 42 42 42 40 36 41 36 38 38 38 34 28 25 23 19 17 16 11 4 5 4 8 15 17 21 22 20 22 23 23 21 19 15 14 14 14 15 15 16 16 17 17
36 39 41 43 43 41 39 46 42 41 39 39 36 32 29 27 20 28 14 8 4 3 3 7 6 10 12 11 12 11 13 15 17 16 14 14 14 14 14 14 15 14 14
35 36 37 37 38 40 43 48 48 43 41 37 36 34 30 28 33 25 19 15 10 7 1 0 0 3 4 3 3 7 11 12 11 11 14 14 14 14 15 17 18 19 18
32 32 33 34 36 40 46 45 47 44 43 41 35 33 37 39 35 31 24 16 12 11 4 5 12 6 3 2 4 6 10 9 10 10 13 16 18 19 20 21 22 22 22
34 33 33 34 37 41 45 45 46 43 41 38 39 41 38 39 37 30 24 20 17 16 15 15 12 8 6 2 4 6 6 7 8 10 13 17 19 21 24 27 28 29 29
38 37 36 37 40 43 46 50 49 46 42 36 41 45 43 40 33 29 26 23 20 20 16 10 8 4 2 3 4 2 3 3 4 8 13 15 18 21 25 29 31 30 30
41 40 40 40 44 46 54 54 52 50 44 41 38 35 38 38 33 26 21 18 15 12 12 7 1 6 7 8 6 9 10 7 8 12 13 16 19 22 25 28 31 32 32
39 37 36 38 45 51 53 53 53 50 47 40 33 30 32 31 26 23 22 21 17 12 11 8 8 12 10 14 14 13 11 9 8 7 12 15 22 27 33 35 37 38 40
41 38 36 40 46 53 55 61 58 54 49 45 37 32 32 29 27 25 26 23 21 19 15 13 11 11 13 13 12 14 13 6 4 7 10 19 28 37 41 42 43 44 44
41 39 39 43 52 57 60 61 59 58 54 49 41 38 34 30 32 30 28 26 23 18 14 11 8 6 14 12 7 10 11 7 9 19 14 22 35 39 41 42 43 44 46
47 45 44 49 59 65 62 59 62 59 55 49 47 43 42 40 37 32 28 24 20 14 9 7 7 7 9 11 11 5 3 3 17 9 12 29 37 39 41 43 46 48 49
51 48 49 56 60 62 69 70 61 57 59 54 55 53 50 44 38 31 26 21 14 10 8 8 11 14 17 16 15 16 14 15 12 13 23 33 38 41 42 43 45 48 48
56 57 57 60 62 63 62 63 65 62 63 64 62 61 54 46 37 30 23 17 13 12 11 14 17 18 18 17 15 13 13 14 19 23 28 44 38 39 40 42 44 46 50
63 63 61 64 64 65 66 65 64 63 69 71 70 62 53 45 38 30 23 17 15 12 13 13 17 17 17 17 17 16 16 18 21 25 34 43 47 47 41 37 43 48 54
Wind_Direction_850mb
167 163 151 143 137 130 122 108 100 94 97 89 81 67 61 59 55 52 56 60 67 73 78 80 81 84 87 87 83 81 76 71 65 60 67 75 81 79 76 75 75 71 63
178 161 160 155 147 138 131 123 107 99 98 86 75 62 60 58 52 47 45 52 62 69 73 75 79 79 82 86 90 84 64 61 61 52 60 58 57 65 74 80 81 78 71
174 165 161 162 156 149 144 131 121 115 103 98 84 65 61 52 45 44 45 50 61 70 72 72 73 76 82 92 103 95 79 69 69 49 57 55 49 49 49 45 45 70 84
170 170 169 166 162 156 150 141 135 126 114 114 90 65 61 57 49 46 46 46 55 67 70 68 68 72 79 90 107 109 94 85 70 48 29 35 28 26 31 33 32 30 17
162 174 172 165 161 164 161 158 148 133 124 126 104 82 77 63 54 50 46 47 53 63 63 63 66 72 80 93 109 115 105 80 48 27 6 2 12 25 29 29 25 22 15
164 174 175 170 164 157 164 163 155 145 141 135 118 111 87 61 58 54 49 49 51 56 61 60 61 66 77 92 109 121 113 36 3 8 10 13 21 28 29 31 29 26 25
159 159 175 177 171 171 171 170 159 141 125 126 131 136 101 80 65 55 50 46 45 49 57 59 60 64 71 81 97 93 39 27 3 11 17 23 28 28 26 25 22 18 17
161 169 186 191 190 179 179 181 173 158 160 146 142 142 121 86 65 52 45 41 39 41 45 52 55 56 59 62 62 58 44 35 31 31 28 28 26 24 23 22 19 17 12
164 182 192 196 202 191 185 190 186 171 165 180 167 163 146 102 65 54 40 38 41 57 57 57 58 58 61 61 55 47 40 33 29 27 26 24 21 18 18 17 15 12 8
184 185 192 195 199 203 199 198 197 193 184 204 195 187 180 149 111 91 58 23 36 57 62 58 58 61 61 61 60 50 43 34 28 24 22 20 18 17 17 15 12 8 4
204 202 201 195 199 206 203 203 207 208 203 212 212 202 201 165 147 127 105 55 31 34 48 57 53 61 63 60 58 55 52 49 42 34 27 24 19 15 13 12 9 5 2
203 204 202 202 202 208 202 198 204 210 212 219 218 212 207 186 173 173 140 83 70 37 34 50 65 72 70 66 65 65 62 60 55 44 33 24 15 8 4 1 1 360 359
206 208 209 210 216 218 203 196 205 210 214 216 202 209 205 204 191 187 180 173 177 115 47 39 58 71 69 76 76 71 64 60 55 49 41 30 20 8 1 357 353 350 348
216 212 211 214 217 217 206 199 205 212 214 219 213 206 198 206 198 187 207 201 211 190 103 50 66 80 68 78 68 72 61 53 53 48 41 34 28 20 8 353 345 340 333
224 219 218 220 221 218 212 208 204 209 214 212 203 202 206 207 200 205 215 211 224 226 220 184 20 258 55 139 32 36 32 33 28 26 27 22 19 7 355 351 348 344 336
208 208 211 213 214 214 211 202 197 203 209 210 201 210 201 197 204 217 221 215 204 202 226 268 298 293 253 290 20 7 360 1 2 2 3 0 359 357 356 354 350 343 333
216 220 220 219 216 212 208 198 194 198 203 203 201 203 202 203 210 211 209 207 202 216 206 242 252 228 252 252 337 337 354 13 4 358 1 3 4 4 4 1 357 352 345
227 232 234 229 220 211 202 191 198 198 201 198 201 200 203 209 203 202 202 198 208 207 222 220 251 289 147 225 279 326 354 354 4 360 11 18 21 18 12 11 7 5 359
232 233 235 229 219 206 195 192 197 197 199 195 197 201 201 198 198 196 194 193 188 182 187 192 200 97 110 119 119 106 100 91 58 47 44 35 29 19 12 7 1 356 353
236 234 231 225 208 198 195 194 197 197 197 197 196 200 194 186 182 182 182 179 180 184 184 172 127 100 103 93 106 116 103 87 74 48 30 21 11 360 354 350 346 344 342
231 230 230 220 202 195 192 192 193 195 192 191 192 195 178 176 176 181 182 175 161 154 149 134 113 94 97 104 116 114 120 117 17 359 350 348 349 351 349 346 345 341 338
228 222 217 202 192 191 195 194 194 192 187 183 188 187 180 182 173 168 165 159 151 153 142 137 133 117 102 110 159 187 183 227 310 308 313 339 344 347 346 349 347 344 343
218 215 206 194 191 190 189 190 190 185 182 179 186 183 176 171 166 164 159 155 145 131 132 115 83 65 64 65 66 96 234 228 316 262 304 336 345 351 353 352 350 348 347
215 206 197 197 195 196 195 194 194 196 190 187 185 179 170 166 162 160 159 147 142 140 127 104 70 52 45 34 23 23 19 3 351 321 320 338 352 353 356 353 350 349 348
210 204 197 198 195 195 196 198 196 193 193 187 178 173 166 161 163 160 154 157 150 127 99 68 55 44 37 34 27 25 8 358 348 338 329 335 339 349 353 350 348 345 343
202 197 195 194 196 196 196 195 195 199 192 182 175 172 167 168 165 161 164 152 130 105 74 47 30 20 16 20 26 23 15 12 356 347 336 335 337 344 348 350 344 343 340